Cut Bank, MT

6:57 AM MST on November 15, 2019 (GMT -0700)
Cut Bank Municipal

Weather History for KCTB - September, 2019

Change the Weather History Date:

Saturday, September 14, 2019

  Actual Average Record
Temperature  
Mean Temperature 60 °F 54 °F  
Max Temperature 72 °F 68 °F 88 °F (1923)
Min Temperature 48 °F 40 °F 18 °F (1970)
Degree Days  
Heating Degree Days 5 11  
Month to date heating degree days 94 124  
Since 1 July heating degree days 267 318  
Cooling Degree Days 0 0  
Month to date cooling degree days 1 6  
Year to date cooling degree days 105 159  
Growing Degree Days 10 (Base 50)    
Moisture  
Dew Point 39 °F    
Average Humidity 46    
Maximum Humidity 62    
Minimum Humidity 29    
Precipitation  
Precipitation 0.00 in 0.05 in 0.28 in (1991)
Month to date precipitation 0.49 0.63  
Year to date precipitation 9.32 9.29  
Snow  
Snow - - - ()
Snow Depth 0.00 in    
Sea Level Pressure  
Sea Level Pressure 29.87 in    
Wind  
Wind Speed 12 mph ()    
Max Wind Speed 30 mph    
Max Gust Speed 37 mph    
Visibility 10.0 miles    
Events      
T = Trace of Precipitation, MM = Missing Value Source: Averaged Metar Reports

Daily Weather History Graph

Daily Weather History Graph

Search for Another Location

Airport or City:

Astronomy

Sep. 14, 2019 Rise Set
Actual Time 7:04 AM MDT 7:44 PM MDT
Civil Twilight 6:32 AM MDT 8:16 PM MDT
Nautical Twilight 5:55 AM MDT 8:53 PM MDT
Astronomical Twilight 5:15 AM MDT 9:33 PM MDT
Moon 8:27 PM MDT (9/14) 7:18 AM MDT (9/14)
Length of Visible Light 13h 43m
Length of Day
12h 39m
Full, 100% of the Moon is Illuminated
Sep 14
Full
Sep 21
Last Quarter
Sep 28
New
Oct 5
First Quarter
Oct 13
Full

Hourly Weather History & Observations

Time (MDT) Temp. Dew Point Humidity Pressure Visibility Wind Dir Wind Speed Gust Speed Precip Events Conditions
12:56 AM 50.0 °F 37.0 °F 61% 29.94 in 10.0 mi Calm Calm - N/A   Clear
1:56 AM 53.1 °F 37.9 °F 57% 29.93 in 10.0 mi West 13.8 mph - N/A   Clear
2:56 AM 50.0 °F 37.0 °F 61% 29.93 in 10.0 mi WSW 8.1 mph - N/A   Clear
3:56 AM 51.1 °F 37.0 °F 59% 29.92 in 10.0 mi WSW 10.4 mph - N/A   Clear
4:56 AM 50.0 °F 36.0 °F 59% 29.91 in 10.0 mi WSW 13.8 mph - N/A   Clear
5:56 AM 53.1 °F 36.0 °F 52% 29.91 in 10.0 mi WSW 15.0 mph - N/A   Clear
6:56 AM 52.0 °F 36.0 °F 54% 29.91 in 10.0 mi SW 10.4 mph - N/A   Partly Cloudy
7:56 AM 57.0 °F 37.0 °F 47% 29.92 in 10.0 mi WSW 10.4 mph - N/A   Scattered Clouds
8:56 AM 61.0 °F 39.0 °F 44% 29.91 in 10.0 mi WSW 18.4 mph 26.5 mph N/A   Partly Cloudy
9:56 AM 64.0 °F 39.0 °F 40% 29.90 in 10.0 mi WSW 19.6 mph - N/A   Mostly Cloudy
10:56 AM 66.0 °F 39.9 °F 38% 29.88 in 10.0 mi WSW 20.7 mph 26.5 mph N/A   Scattered Clouds
11:56 AM 66.0 °F 39.0 °F 37% 29.89 in 10.0 mi WSW 21.9 mph 27.6 mph N/A   Clear
12:56 PM 66.0 °F 37.9 °F 36% 29.87 in 10.0 mi WSW 18.4 mph 27.6 mph N/A   Clear
1:56 PM 69.1 °F 37.0 °F 31% 29.85 in 10.0 mi SW 19.6 mph 29.9 mph N/A   Clear
2:56 PM 69.1 °F 37.9 °F 32% 29.83 in 10.0 mi West 16.1 mph 27.6 mph N/A   Clear
3:56 PM 68.0 °F 39.0 °F 35% 29.83 in 10.0 mi NNW 5.8 mph - N/A   Clear
4:30 PM 70.0 °F 36.0 °F 29% 29.88 in 10.0 mi WSW 19.6 mph 25.3 mph N/A   Clear
4:56 PM 70.0 °F 37.9 °F 31% 29.83 in 10.0 mi WSW 21.9 mph 28.8 mph N/A   Clear
5:56 PM 70.0 °F 39.0 °F 32% 29.81 in 10.0 mi WSW 24.2 mph 33.4 mph N/A   Clear
6:56 PM 68.0 °F 41.0 °F 37% 29.83 in 10.0 mi WSW 23.0 mph 29.9 mph N/A   Clear
7:56 PM 64.9 °F 41.0 °F 42% 29.83 in 10.0 mi WSW 18.4 mph 28.8 mph N/A   Clear
8:56 PM 63.0 °F 42.1 °F 46% 29.83 in 10.0 mi West 16.1 mph - N/A   Clear
9:56 PM 57.0 °F 42.1 °F 57% 29.83 in 10.0 mi WSW 10.4 mph - N/A   Clear
10:56 PM 55.0 °F 42.1 °F 62% 29.82 in 10.0 mi SW 11.5 mph - N/A   Clear
11:56 PM 55.9 °F 42.1 °F 60% 29.81 in 10.0 mi WSW 8.1 mph - N/A   Clear